This demonstration page uses our WeatherBlox Daily Observations layout. Learn more.

Left ArrowRight Arrow

Hourly Observations for October 12, 2015

Temp ( °F °C ) Dew Point ( °F °C ) Humidity (%) Winds ( mph kmh ) Pressure ( in mb ) Visibility ( mi km ) Precip ( " mm )
12:53 am 00:53 Clear 61 16.1 44 6.7 54 54 undefined N/A 29.96 1014 10 16 0.00 0.00
1:53 am 01:53 Clear 59 15 43 6.1 56 56 undefined N/A 29.96 1015 10 16 0.00 0.00
2:53 am 02:53 Clear 59 15 44 6.7 58 58 Calm 29.97 1015 10 16 0.00 0.00
3:53 am 03:53 Clear 58 14.4 43 6.1 58 58 Calm 29.96 1015 10 16 0.00 0.00
4:53 am 04:53 Clear 56 13.3 43 6.1 62 62 Calm 29.96 1015 10 16 0.00 0.00
5:53 am 05:53 Clear 56 13.3 43 6.1 62 62 Calm 29.98 1015 10 16 0.00 0.00
6:53 am 06:53 Clear 55 12.8 44 6.7 67 67 Calm 29.98 1015 10 16 0.00 0.00
7:53 am 07:53 Sunny 56 13.3 43 6.1 62 62 Calm 29.99 1016 10 16 0.00 0.00
8:53 am 08:53 Sunny 67 19.4 44 6.7 44 44 Calm 30.00 1016 10 16 0.00 0.00
9:53 am 09:53 Sunny 74 23.3 43 6.1 33 33 NW 3 6 30.00 1016 10 16 0.00 0.00
10:53 am 10:53 Sunny 81 27.2 41 5 24 24 Calm 29.99 1016 10 16 0.00 0.00
11:53 am 11:53 Sunny 87 30.6 41 5 20 20 Calm 29.98 1015 10 16 0.00 0.00
12:53 pm 12:53 Sunny 90 32.2 40 4.4 17 17 Calm 29.96 1015 10 16 0.00 0.00
1:53 pm 13:53 Sunny 93 33.9 37 2.8 14 14 Calm 29.93 1014 10 16 0.00 0.00
2:53 pm 14:53 Sunny 95 35 31 -0.6 10 10 ESE 3 6 29.91 1013 10 16 0.00 0.00
3:53 pm 15:53 Sunny 95 35 31 -0.6 10 10 Calm 29.90 1013 10 16 0.00 0.00
4:53 pm 16:53 Sunny 95 35 32 0 11 11 SW 5 7 29.89 1012 10 16 0.00 0.00
5:53 pm 17:53 Sunny 93 33.9 32 0 11 11 SE 5 7 29.90 1012 10 16 0.00 0.00
6:53 pm 18:53 Clear 84 28.9 38 3.3 19 19 Calm 29.91 1013 10 16 0.00 0.00
7:53 pm 19:53 Clear 76 24.4 39 3.9 26 26 Calm 29.93 1013 10 16 0.00 0.00
8:53 pm 20:53 Clear 72 22.2 39 3.9 30 30 N 3 6 29.93 1014 10 16 0.00 0.00
9:53 pm 21:53 Clear 69 20.6 40 4.4 35 35 Calm 29.95 1014 10 16 0.00 0.00
10:53 pm 22:53 Clear 67 19.4 40 4.4 37 37 Calm 29.96 1015 10 16 0.00 0.00
11:53 pm 23:53 Clear 65 18.3 41 5 42 42 Calm 29.96 1015 10 16 0.00 0.00

Powered by AerisWeather